| time (UTC) | temp F | wind direction | speed MPH | gust MPH | rain 1hr in | rain 24hr in | rain mn in | humidity % | barometer mb |
| 20260903163044 | 86 | 143 | 6.0 | 10.0 | 0.00 | 0.00 | 0.00 | 63 | 1002.2 |
| 20260903163019 | 86 | 167 | 6.0 | 9.0 | 0.00 | 0.00 | 0.00 | 63 | 1006.5 |
| 20260903162510 | 85 | 165 | 5.0 | 8.0 | 0.00 | 0.00 | 0.00 | 65 | 1006.5 |
| 20260903162013 | 85 | 150 | 5.0 | 8.0 | 0.00 | 0.00 | 0.00 | 66 | 1006.6 |
| 20260903161539 | 85 | 160 | 4.0 | 9.0 | 0.00 | 0.00 | 0.00 | 68 | 1002.3 |
| 20260903161505 | 85 | 145 | 3.0 | 9.0 | 0.00 | 0.00 | 0.00 | 65 | 1006.6 |
| 20260903161002 | 84 | 139 | 5.0 | 11.0 | 0.00 | 0.00 | 0.00 | 68 | 1006.7 |
| 20260903160503 | 84 | 129 | 5.0 | 11.0 | 0.00 | 0.00 | 0.00 | 69 | 1006.8 |
| 20260903160036 | 84 | 200 | 7.0 | 11.0 | 0.00 | 0.00 | 0.00 | 70 | 1002.5 |
| 20260903160007 | 84 | 153 | 7.0 | 11.0 | 0.00 | 0.00 | 0.00 | 69 | 1006.8 |
| 20260903155503 | 83 | 244 | 5.0 | 11.0 | 0.00 | 0.00 | 0.00 | 70 | 1006.8 |
| 20260903155003 | 83 | 136 | 6.0 | 11.0 | 0.00 | 0.00 | 0.00 | 71 | 1006.9 |
| 20260903154532 | 83 | 154 | 5.0 | 9.0 | 0.00 | 0.00 | 0.00 | 72 | 1002.7 |
| 20260903154503 | 82 | 154 | 5.0 | 10.0 | 0.00 | 0.00 | 0.00 | 72 | 1007.0 |
| 20260903154001 | 82 | 205 | 5.0 | 10.0 | 0.00 | 0.00 | 0.00 | 73 | 1007.0 |
| 20260903153504 | 81 | 240 | 4.0 | 9.0 | 0.00 | 0.00 | 0.00 | 74 | 1006.9 |
| 20260903153028 | 81 | 155 | 4.0 | 8.0 | 0.00 | 0.00 | 0.00 | 75 | 1002.6 |
| 20260903153004 | 81 | 174 | 4.0 | 8.0 | 0.00 | 0.00 | 0.00 | 74 | 1006.9 |
| 20260903152502 | 81 | 124 | 4.0 | 9.0 | 0.00 | 0.00 | 0.00 | 76 | 1006.9 |
| 20260903152002 | 81 | 212 | 4.0 | 9.0 | 0.00 | 0.00 | 0.00 | 75 | 1007.1 |
| 20260903151529 | 80 | 194 | 5.0 | 9.0 | 0.00 | 0.00 | 0.00 | 76 | 1002.8 |
| 20260903151504 | 80 | 172 | 5.0 | 9.0 | 0.00 | 0.00 | 0.00 | 77 | 1007.2 |
| 20260903151004 | 80 | 149 | 5.0 | 8.0 | 0.00 | 0.00 | 0.00 | 78 | 1007.2 |
| 20260903150503 | 79 | 213 | 4.0 | 8.0 | 0.00 | 0.00 | 0.00 | 78 | 1007.2 |
| 20260903150021 | 79 | 239 | 3.0 | 7.0 | 0.00 | 0.00 | 0.00 | 80 | 1002.8 |
| 20260903150010 | 79 | 200 | 4.0 | 7.0 | 0.00 | 0.00 | 0.00 | 79 | 1007.0 |
| 20260903145506 | 78 | 202 | 3.0 | 6.0 | 0.00 | 0.00 | 0.00 | 80 | 1007.1 |
| 20260903145003 | 77 | 161 | 3.0 | 5.0 | 0.00 | 0.00 | 0.00 | 81 | 1007.2 |
| 20260903144517 | 77 | 200 | 1.0 | 4.0 | 0.00 | 0.00 | 0.00 | 83 | 1002.9 |
| 20260903144506 | 77 | 190 | 2.0 | 4.0 | 0.00 | 0.00 | 0.00 | 83 | 1007.1 |
| 20260903144003 | 76 | 195 | 2.0 | 4.0 | 0.00 | 0.00 | 0.00 | 84 | 1007.1 |
| 20260903143502 | 76 | 136 | 1.0 | 4.0 | 0.00 | 0.00 | 0.00 | 84 | 1007.2 |
| 20260903143014 | 75 | 165 | 2.0 | 4.0 | 0.00 | 0.00 | 0.00 | 85 | 1003.0 |
| 20260903143004 | 75 | 204 | 2.0 | 4.0 | 0.00 | 0.00 | 0.00 | 84 | 1007.2 |
| 20260903142503 | 75 | 198 | 1.0 | 2.0 | 0.00 | 0.00 | 0.00 | 85 | 1007.1 |
| 20260903142003 | 75 | 129 | 1.0 | 5.0 | 0.00 | 0.00 | 0.00 | 85 | 1007.0 |
| 20260903141512 | 75 | 157 | 2.0 | 5.0 | 0.00 | 0.00 | 0.00 | 86 | 1003.0 |
| 20260903141504 | 74 | 162 | 2.0 | 5.0 | 0.00 | 0.00 | 0.00 | 86 | 1007.2 |
| 20260903141002 | 74 | 208 | 3.0 | 6.0 | 0.00 | 0.00 | 0.00 | 86 | 1007.3 |
| 20260903140503 | 74 | 155 | 3.0 | 6.0 | 0.00 | 0.00 | 0.00 | 86 | 1007.2 |
| 20260903140028 | 74 | 143 | 1.0 | 6.0 | 0.00 | 0.00 | 0.00 | 86 | 1002.8 |
| 20260903140012 | 74 | 182 | 2.0 | 7.0 | 0.00 | 0.00 | 0.00 | 85 | 1007.1 |
| 20260903135506 | 75 | 245 | 4.0 | 7.0 | 0.00 | 0.00 | 0.00 | 84 | 1007.2 |
| 20260903135003 | 74 | 165 | 4.0 | 7.0 | 0.00 | 0.00 | 0.00 | 84 | 1006.8 |
| 20260903134516 | 75 | 203 | 2.0 | 5.0 | 0.00 | 0.00 | 0.00 | 84 | 1002.4 |
| 20260903134505 | 75 | 176 | 2.0 | 6.0 | 0.00 | 0.00 | 0.00 | 84 | 1006.5 |
| 20260903134003 | 75 | 132 | 2.0 | 6.0 | 0.00 | 0.00 | 0.00 | 84 | 1006.6 |
| 20260903133503 | 75 | 143 | 1.0 | 7.0 | 0.00 | 0.00 | 0.00 | 84 | 1006.6 |
| 20260903133009 | 75 | 147 | 1.0 | 7.0 | 0.00 | 0.00 | 0.00 | 84 | 1002.4 |
| 20260903133004 | 75 | 119 | 1.0 | 8.0 | 0.00 | 0.00 | 0.00 | 84 | 1006.6 |
| 20260903132503 | 75 | 114 | 2.0 | 8.0 | 0.00 | 0.00 | 0.00 | 84 | 1006.6 |
| 20260903132002 | 74 | 94 | 4.0 | 9.0 | 0.00 | 0.00 | 0.00 | 84 | 1006.6 |
| 20260903131509 | 74 | 127 | 3.0 | 9.0 | 0.00 | 0.00 | 0.00 | 85 | 1002.4 |
| 20260903131506 | 74 | 130 | 3.0 | 9.0 | 0.00 | 0.00 | 0.00 | 84 | 1006.6 |
| 20260903131002 | 74 | 156 | 4.0 | 8.0 | 0.00 | 0.00 | 0.00 | 85 | 1006.6 |
| 20260903130507 | 74 | 120 | 3.0 | 8.0 | 0.00 | 0.00 | 0.00 | 85 | 1006.6 |
| 20260903130005 | 73 | 148 | 3.0 | 7.0 | 0.00 | 0.00 | 0.00 | 86 | 1002.5 |
| 20260903130003 | 73 | 146 | 3.0 | 7.0 | 0.00 | 0.00 | 0.00 | 86 | 1006.5 |
| 20260903125503 | 73 | 170 | 3.0 | 7.0 | 0.00 | 0.00 | 0.00 | 86 | 1006.5 |
| 20260903125002 | 73 | 101 | 4.0 | 7.0 | 0.00 | 0.00 | 0.00 | 87 | 1006.5 |
| 20260903124506 | 73 | 126 | 3.0 | 7.0 | 0.00 | 0.00 | 0.00 | 87 | 1006.5 |
| 20260903124504 | 73 | 122 | 2.0 | 7.0 | 0.00 | 0.00 | 0.00 | 88 | 1002.4 |
| 20260903124004 | 73 | 96 | 3.0 | 7.0 | 0.00 | 0.00 | 0.00 | 87 | 1006.5 |
| 20260903123503 | 72 | 152 | 3.0 | 7.0 | 0.00 | 0.00 | 0.00 | 88 | 1006.6 |
| 20260903123005 | 72 | 98 | 2.0 | 8.0 | 0.00 | 0.00 | 0.00 | 88 | 1006.7 |
| 20260903123003 | 72 | 122 | 2.0 | 8.0 | 0.00 | 0.00 | 0.00 | 89 | 1002.5 |
| 20260903122504 | 72 | 63 | 4.0 | 8.0 | 0.00 | 0.00 | 0.00 | 89 | 1006.7 |
| 20260903122004 | 72 | 129 | 3.0 | 5.0 | 0.00 | 0.00 | 0.00 | 89 | 1006.8 |
| 20260903121507 | 71 | 84 | 3.0 | 6.0 | 0.00 | 0.00 | 0.00 | 89 | 1006.8 |
| 20260903121501 | 71 | 84 | 3.0 | 5.0 | 0.00 | 0.00 | 0.00 | 90 | 1002.7 |
| 20260903121001 | 71 | 124 | 2.0 | 6.0 | 0.00 | 0.00 | 0.00 | 90 | 1006.9 |
| 20260903120503 | 71 | 115 | 2.0 | 5.0 | 0.00 | 0.00 | 0.00 | 90 | 1006.9 |
| 20260903120113 | 71 | 106 | 3.0 | 6.0 | 0.00 | 0.00 | 0.00 | 90 | 1002.8 |
| 20260903120008 | 71 | 117 | 3.0 | 6.0 | 0.00 | 0.00 | 0.00 | 90 | 1007.0 |
| 20260903115501 | 71 | 90 | 2.0 | 6.0 | 0.00 | 0.00 | 0.00 | 90 | 1007.0 |
| 20260903115003 | 71 | 122 | 3.0 | 6.0 | 0.00 | 0.00 | 0.00 | 90 | 1007.1 |
| 20260903114559 | 71 | 119 | 3.0 | 7.0 | 0.00 | 0.01 | 0.00 | 90 | 1003.0 |
| 20260903114510 | 71 | 76 | 4.0 | 7.0 | 0.00 | 0.00 | 0.00 | 90 | 1007.1 |
| 20260903114002 | 71 | 76 | 4.0 | 8.0 | 0.00 | 0.00 | 0.00 | 90 | 1007.0 |
| 20260903113502 | 71 | 120 | 4.0 | 8.0 | 0.00 | 0.00 | 0.00 | 90 | 1007.0 |
| 20260903113059 | 71 | 110 | 4.0 | 8.0 | 0.00 | 0.01 | 0.00 | 90 | 1002.9 |
| 20260903113006 | 71 | 89 | 4.0 | 11.0 | 0.00 | 0.00 | 0.00 | 90 | 1007.0 |
| 20260903112503 | 71 | 80 | 4.0 | 11.0 | 0.00 | 0.00 | 0.00 | 90 | 1007.0 |
| 20260903112003 | 70 | 106 | 3.0 | 8.0 | 0.00 | 0.00 | 0.00 | 90 | 1007.2 |
| 20260903111601 | 70 | 86 | 3.0 | 8.0 | 0.00 | 0.01 | 0.00 | 90 | 1003.2 |
| 20260903111508 | 70 | 63 | 4.0 | 8.0 | 0.00 | 0.00 | 0.00 | 90 | 1007.1 |
| 20260903111004 | 70 | 95 | 4.0 | 7.0 | 0.00 | 0.00 | 0.00 | 90 | 1007.2 |
| 20260903110504 | 70 | 87 | 1.0 | 7.0 | 0.00 | 0.00 | 0.00 | 89 | 1007.3 |
| 20260903110054 | 71 | 75 | 1.0 | 7.0 | 0.00 | 0.01 | 0.00 | 90 | 1003.3 |
| 20260903110009 | 71 | 80 | 2.0 | 10.0 | 0.00 | 0.01 | 0.00 | 89 | 1007.4 |
| 20260903105503 | 71 | 79 | 3.0 | 10.0 | 0.00 | 0.01 | 0.00 | 89 | 1007.4 |
| 20260903105004 | 71 | 102 | 4.0 | 9.0 | 0.00 | 0.01 | 0.00 | 89 | 1007.4 |
| 20260903104553 | 71 | 115 | 5.0 | 9.0 | 0.00 | 0.01 | 0.00 | 90 | 1003.4 |
| 20260903104509 | 71 | 107 | 6.0 | 9.0 | 0.00 | 0.01 | 0.00 | 89 | 1007.5 |
| 20260903104004 | 71 | 86 | 4.0 | 8.0 | 0.00 | 0.01 | 0.00 | 89 | 1007.5 |
| 20260903103502 | 71 | 123 | 3.0 | 8.0 | 0.00 | 0.01 | 0.00 | 89 | 1007.7 |
| 20260903103053 | 71 | 82 | 1.0 | 4.0 | 0.00 | 0.01 | 0.00 | 89 | 1003.6 |
| 20260903103009 | 71 | 116 | 2.0 | 4.0 | 0.00 | 0.01 | 0.00 | 89 | 1007.7 |
| 20260903102503 | 71 | 120 | 2.0 | 8.0 | 0.00 | 0.01 | 0.00 | 89 | 1007.6 |
| 20260903102003 | 71 | 131 | 3.0 | 9.0 | 0.00 | 0.01 | 0.00 | 89 | 1007.6 |
| 20260903101553 | 71 | 116 | 4.0 | 10.0 | 0.00 | 0.01 | 0.00 | 89 | 1003.7 |
| 20260903101510 | 71 | 110 | 5.0 | 10.0 | 0.00 | 0.01 | 0.00 | 89 | 1007.6 |
| 20260903101003 | 71 | 73 | 4.0 | 10.0 | 0.00 | 0.01 | 0.00 | 89 | 1007.6 |
| 20260903100505 | 71 | 110 | 4.0 | 10.0 | 0.00 | 0.01 | 0.00 | 89 | 1007.5 |
| 20260903100052 | 71 | 119 | 3.0 | 10.0 | 0.00 | 0.01 | 0.00 | 89 | 1003.5 |
| 20260903100011 | 71 | 87 | 3.0 | 10.0 | 0.00 | 0.01 | 0.00 | 89 | 1007.5 |
| 20260903095502 | 71 | 102 | 3.0 | 11.0 | 0.00 | 0.01 | 0.00 | 89 | 1007.5 |
| 20260903095004 | 71 | 89 | 5.0 | 11.0 | 0.00 | 0.01 | 0.00 | 89 | 1007.4 |
| 20260903094559 | 70 | 59 | 3.0 | 9.0 | 0.00 | 0.01 | 0.00 | 89 | 1003.5 |
| 20260903094508 | 71 | 83 | 3.0 | 9.0 | 0.00 | 0.01 | 0.00 | 89 | 1007.4 |
| 20260903094007 | 70 | 105 | 4.0 | 9.0 | 0.00 | 0.01 | 0.00 | 89 | 1007.5 |
| 20260903093504 | 70 | 109 | 4.0 | 8.0 | 0.00 | 0.01 | 0.00 | 89 | 1007.6 |
| 20260903093049 | 70 | 101 | 2.0 | 8.0 | 0.00 | 0.01 | 0.00 | 89 | 1003.6 |
| 20260903093010 | 70 | 89 | 3.0 | 8.0 | 0.00 | 0.01 | 0.00 | 89 | 1007.6 |
| 20260903092503 | 70 | 72 | 5.0 | 8.0 | 0.00 | 0.01 | 0.00 | 89 | 1007.5 |
| 20260903092006 | 70 | 92 | 5.0 | 9.0 | 0.00 | 0.01 | 0.00 | 88 | 1007.5 |
| 20260903091546 | 71 | 129 | 4.0 | 10.0 | 0.00 | 0.01 | 0.00 | 89 | 1003.4 |
| 20260903091510 | 71 | 88 | 5.0 | 10.0 | 0.00 | 0.01 | 0.00 | 88 | 1007.5 |
| 20260903091003 | 71 | 94 | 4.0 | 10.0 | 0.00 | 0.01 | 0.00 | 88 | 1007.5 |
| 20260903090503 | 71 | 105 | 4.0 | 8.0 | 0.00 | 0.01 | 0.00 | 88 | 1007.5 |
| 20260903090055 | 71 | 125 | 2.0 | 8.0 | 0.00 | 0.01 | 0.00 | 88 | 1003.5 |
| 20260903090019 | 71 | 88 | 3.0 | 8.0 | 0.00 | 0.01 | 0.00 | 88 | 1007.5 |
| 20260903085502 | 71 | 72 | 4.0 | 8.0 | 0.00 | 0.01 | 0.00 | 88 | 1007.6 |
| 20260903085006 | 71 | 113 | 2.0 | 7.0 | 0.00 | 0.01 | 0.00 | 88 | 1007.8 |
| 20260903084540 | 71 | 70 | 3.0 | 7.0 | 0.00 | 0.01 | 0.00 | 88 | 1004.0 |
| 20260903084524 | 71 | 61 | 4.0 | 7.0 | 0.00 | 0.01 | 0.00 | 87 | 1008.0 |
| 20260903084006 | 71 | 56 | 4.0 | 7.0 | 0.00 | 0.01 | 0.00 | 87 | 1008.2 |
| 20260903083506 | 71 | 58 | 3.0 | 7.0 | 0.00 | 0.01 | 0.00 | 87 | 1008.2 |
| 20260903083053 | 71 | 60 | 3.0 | 6.0 | 0.00 | 0.01 | 0.00 | 87 | 1004.3 |
| 20260903083012 | 71 | 53 | 3.0 | 7.0 | 0.00 | 0.01 | 0.00 | 87 | 1008.3 |
| 20260903082505 | 72 | 67 | 4.0 | 8.0 | 0.00 | 0.01 | 0.00 | 86 | 1008.3 |
| 20260903082003 | 72 | 65 | 4.0 | 8.0 | 0.00 | 0.01 | 0.00 | 86 | 1008.4 |
| 20260903081536 | 72 | 58 | 3.0 | 7.0 | 0.00 | 0.01 | 0.00 | 86 | 1004.3 |
| 20260903081511 | 72 | 57 | 3.0 | 7.0 | 0.00 | 0.01 | 0.00 | 86 | 1008.4 |
| 20260903081009 | 72 | 49 | 4.0 | 8.0 | 0.00 | 0.01 | 0.00 | 86 | 1008.3 |
| 20260903080511 | 72 | 88 | 4.0 | 8.0 | 0.00 | 0.01 | 0.00 | 86 | 1008.3 |
| 20260903080035 | 72 | 77 | 4.0 | 8.0 | 0.00 | 0.01 | 0.00 | 86 | 1004.2 |
| 20260903080014 | 72 | 94 | 4.0 | 8.0 | 0.00 | 0.01 | 0.00 | 85 | 1008.2 |
| 20260903075504 | 72 | 82 | 4.0 | 9.0 | 0.00 | 0.01 | 0.00 | 85 | 1008.2 |
| 20260903075004 | 73 | 93 | 3.0 | 9.0 | 0.00 | 0.01 | 0.00 | 85 | 1008.2 |
| 20260903074532 | 73 | 134 | 4.0 | 9.0 | 0.00 | 0.01 | 0.00 | 85 | 1004.2 |
| 20260903074512 | 73 | 148 | 4.0 | 9.0 | 0.00 | 0.01 | 0.00 | 85 | 1008.2 |
| 20260903074007 | 73 | 108 | 4.0 | 9.0 | 0.00 | 0.01 | 0.00 | 85 | 1008.2 |
| 20260903073503 | 73 | 127 | 3.0 | 8.0 | 0.00 | 0.01 | 0.00 | 85 | 1008.3 |
| 20260903073031 | 73 | 138 | 3.0 | 7.0 | 0.00 | 0.01 | 0.00 | 85 | 1004.4 |
| 20260903073013 | 73 | 25 | 3.0 | 8.0 | 0.00 | 0.01 | 0.00 | 85 | 1008.4 |
| 20260903072503 | 73 | 98 | 3.0 | 9.0 | 0.00 | 0.01 | 0.00 | 85 | 1008.5 |
| 20260903072005 | 73 | 108 | 3.0 | 9.0 | 0.00 | 0.01 | 0.00 | 85 | 1008.6 |
| 20260903071528 | 73 | 118 | 3.0 | 11.0 | 0.00 | 0.01 | 0.00 | 85 | 1004.5 |
| 20260903071513 | 72 | 98 | 4.0 | 11.0 | 0.00 | 0.01 | 0.00 | 85 | 1008.5 |
| 20260903071006 | 72 | 84 | 4.0 | 11.0 | 0.00 | 0.01 | 0.00 | 85 | 1008.6 |
| 20260903070506 | 72 | 86 | 4.0 | 11.0 | 0.00 | 0.01 | 0.00 | 85 | 1008.5 |
| 20260903070026 | 72 | 91 | 3.0 | 11.0 | 0.00 | 0.01 | 0.00 | 85 | 1004.6 |
| 20260903070022 | 72 | 100 | 4.0 | 11.0 | 0.00 | 0.01 | 0.00 | 85 | 1008.6 |
| 20260903065506 | 72 | 124 | 5.0 | 11.0 | 0.00 | 0.01 | 0.00 | 84 | 1008.7 |
| 20260903065006 | 73 | 92 | 5.0 | 11.0 | 0.00 | 0.01 | 0.00 | 84 | 1008.8 |
| 20260903064522 | 73 | 108 | 6.0 | 11.0 | 0.00 | 0.01 | 0.00 | 84 | 1004.9 |
| 20260903064506 | 73 | 99 | 6.0 | 11.0 | 0.00 | 0.01 | 0.00 | 84 | 1008.9 |
| 20260903064004 | 73 | 107 | 4.0 | 8.0 | 0.00 | 0.01 | 0.00 | 83 | 1009.0 |
| 20260903063505 | 73 | 58 | 3.0 | 8.0 | 0.00 | 0.01 | 0.00 | 83 | 1009.1 |
| 20260903063032 | 73 | 101 | 3.0 | 13.0 | 0.00 | 0.01 | 0.00 | 83 | 1005.2 |
| 20260903063009 | 73 | 98 | 3.0 | 13.0 | 0.00 | 0.01 | 0.00 | 83 | 1009.1 |
| 20260903062507 | 73 | 107 | 4.0 | 13.0 | 0.00 | 0.01 | 0.00 | 82 | 1009.1 |
| 20260903062007 | 73 | 104 | 6.0 | 11.0 | 0.00 | 0.01 | 0.00 | 82 | 1009.2 |
| 20260903061520 | 73 | 86 | 5.0 | 11.0 | 0.00 | 0.01 | 0.00 | 82 | 1009.2 |
| 20260903061518 | 73 | 115 | 4.0 | 11.0 | 0.00 | 0.01 | 0.00 | 82 | 1005.1 |
| 20260903061005 | 74 | 93 | 5.0 | 11.0 | 0.00 | 0.01 | 0.00 | 81 | 1009.2 |
| 20260903060507 | 74 | 113 | 6.0 | 13.0 | 0.00 | 0.01 | 0.00 | 81 | 1009.2 |
| 20260903060035 | 74 | 113 | 6.0 | 13.0 | 0.00 | 0.01 | 0.00 | 81 | 1005.4 |
| 20260903060020 | 74 | 108 | 6.0 | 13.0 | 0.00 | 0.01 | 0.00 | 81 | 1009.3 |
| 20260903055510 | 74 | 83 | 5.0 | 12.0 | 0.00 | 0.01 | 0.00 | 81 | 1009.3 |
| 20260903055008 | 74 | 144 | 6.0 | 11.0 | 0.00 | 0.01 | 0.00 | 81 | 1009.2 |
| 20260903054516 | 74 | 56 | 4.0 | 10.0 | 0.00 | 0.01 | 0.00 | 81 | 1009.3 |
| 20260903054512 | 74 | 83 | 4.0 | 10.0 | 0.00 | 0.01 | 0.00 | 81 | 1005.5 |
| 20260903054004 | 74 | 94 | 4.0 | 9.0 | 0.00 | 0.01 | 0.00 | 81 | 1009.4 |
| 20260903053504 | 73 | 50 | 5.0 | 8.0 | 0.00 | 0.01 | 0.00 | 81 | 1009.5 |
| 20260903053010 | 73 | 137 | 3.0 | 11.0 | 0.00 | 0.01 | 0.00 | 81 | 1009.5 |
| 20260903052506 | 73 | 57 | 3.0 | 11.0 | 0.00 | 0.01 | 0.00 | 81 | 1009.6 |
| 20260903052004 | 73 | 53 | 4.0 | 10.0 | 0.00 | 0.01 | 0.00 | 80 | 1009.5 |
| 20260903051513 | 73 | 68 | 4.0 | 11.0 | 0.00 | 0.01 | 0.00 | 80 | 1009.7 |
| 20260903051506 | 73 | 58 | 4.0 | 11.0 | 0.00 | 0.01 | 0.00 | 81 | 1005.8 |
| 20260903051005 | 73 | 86 | 4.0 | 11.0 | 0.00 | 0.01 | 0.00 | 80 | 1009.7 |
| 20260903050509 | 72 | 51 | 3.0 | 10.0 | 0.00 | 0.01 | 0.00 | 80 | 1009.8 |
| 20260903050036 | 72 | 59 | 6.0 | 11.0 | 0.00 | 0.01 | 0.00 | 80 | 1009.7 |
| 20260903050002 | 72 | 49 | 5.0 | 11.0 | 0.00 | 0.01 | 0.00 | 80 | 1005.7 |
| 20260903045510 | 72 | 93 | 6.0 | 11.0 | 0.00 | 0.01 | 0.01 | 79 | 1009.7 |
| 20260903045007 | 72 | 77 | 4.0 | 9.0 | 0.00 | 0.01 | 0.01 | 79 | 1009.8 |
| 20260903044519 | 72 | 37 | 6.0 | 11.0 | 0.00 | 0.01 | 0.01 | 78 | 1009.8 |
| 20260903044500 | 72 | 37 | 5.0 | 11.0 | 0.00 | 0.01 | 0.01 | 79 | 1005.9 |
| 20260903044009 | 72 | 56 | 5.0 | 11.0 | 0.00 | 0.01 | 0.01 | 78 | 1009.9 |
| 20260903043507 | 72 | 48 | 4.0 | 9.0 | 0.00 | 0.01 | 0.01 | 78 | 1010.0 |
| 20260903043059 | 71 | 48 | 4.0 | 8.0 | 0.00 | 0.01 | 0.01 | 78 | 1006.1 |
| 20260903043018 | 71 | 58 | 5.0 | 8.0 | 0.00 | 0.01 | 0.01 | 77 | 1010.0 |
| 20260903042502 | 71 | 59 | 5.0 | 8.0 | 0.00 | 0.01 | 0.01 | 77 | 1010.0 |
| 20260903042003 | 71 | 63 | 4.0 | 7.0 | 0.00 | 0.01 | 0.01 | 77 | 1010.0 |
| 20260903041559 | 71 | 77 | 3.0 | 7.0 | 0.00 | 0.01 | 0.01 | 77 | 1006.3 |
| 20260903041518 | 71 | 60 | 4.0 | 7.0 | 0.00 | 0.01 | 0.01 | 76 | 1010.1 |
| 20260903041006 | 70 | 70 | 3.0 | 9.0 | 0.00 | 0.01 | 0.01 | 76 | 1010.1 |
| 20260903040505 | 70 | 40 | 3.0 | 9.0 | 0.00 | 0.01 | 0.01 | 76 | 1010.1 |
| 20260903040104 | 70 | 53 | 3.0 | 8.0 | 0.00 | 0.01 | 0.01 | 76 | 1006.3 |
| 20260903040016 | 70 | 62 | 3.0 | 8.0 | 0.00 | 0.01 | 0.01 | 75 | 1010.1 |
| 20260903035510 | 71 | 56 | 5.0 | 9.0 | 0.00 | 0.01 | 0.01 | 75 | 1010.1 |
| 20260903035006 | 71 | 32 | 4.0 | 9.0 | 0.00 | 0.01 | 0.01 | 74 | 1010.2 |
| 20260903034557 | 71 | 56 | 4.0 | 9.0 | 0.00 | 0.01 | 0.01 | 75 | 1006.4 |
| 20260903034526 | 71 | 41 | 4.0 | 9.0 | 0.00 | 0.01 | 0.01 | 74 | 1010.2 |
| 20260903034009 | 71 | 61 | 5.0 | 10.0 | 0.00 | 0.01 | 0.01 | 74 | 1010.2 |
| 20260903033511 | 71 | 63 | 5.0 | 10.0 | 0.00 | 0.01 | 0.01 | 74 | 1010.1 |
| 20260903033056 | 71 | 56 | 4.0 | 9.0 | 0.00 | 0.01 | 0.01 | 75 | 1006.4 |
| 20260903033023 | 71 | 55 | 6.0 | 9.0 | 0.00 | 0.01 | 0.01 | 74 | 1010.3 |
| 20260903032514 | 71 | 60 | 4.0 | 8.0 | 0.00 | 0.01 | 0.01 | 74 | 1010.3 |
| 20260903032009 | 71 | 53 | 4.0 | 8.0 | 0.00 | 0.01 | 0.01 | 73 | 1010.3 |
| 20260903031556 | 71 | 38 | 3.0 | 8.0 | 0.00 | 0.01 | 0.01 | 73 | 1006.4 |
| 20260903031520 | 71 | 30 | 4.0 | 8.0 | 0.00 | 0.01 | 0.01 | 73 | 1010.3 |
| 20260903031005 | 71 | 53 | 4.0 | 8.0 | 0.00 | 0.01 | 0.01 | 72 | 1010.3 |
| 20260903030510 | 71 | 58 | 5.0 | 10.0 | 0.00 | 0.01 | 0.01 | 72 | 1010.3 |
| 20260903030054 | 71 | 75 | 5.0 | 10.0 | 0.00 | 0.01 | 0.01 | 72 | 1006.5 |
| 20260903030013 | 72 | 45 | 6.0 | 10.0 | 0.00 | 0.01 | 0.01 | 72 | 1010.3 |
| 20260903025507 | 72 | 79 | 5.0 | 9.0 | 0.00 | 0.01 | 0.01 | 71 | 1010.3 |
| 20260903025009 | 72 | 46 | 5.0 | 9.0 | 0.00 | 0.01 | 0.01 | 71 | 1010.3 |
| 20260903024556 | 72 | 44 | 5.0 | 8.0 | 0.00 | 0.01 | 0.01 | 71 | 1006.6 |
| 20260903024518 | 72 | 66 | 6.0 | 8.0 | 0.00 | 0.01 | 0.01 | 71 | 1010.4 |
| 20260903024012 | 72 | 50 | 5.0 | 9.0 | 0.00 | 0.01 | 0.01 | 71 | 1010.3 |
| 20260903023508 | 72 | 68 | 5.0 | 9.0 | 0.00 | 0.01 | 0.01 | 71 | 1010.3 |
| 20260903023102 | 72 | 53 | 5.0 | 9.0 | 0.00 | 0.01 | 0.01 | 72 | 1006.5 |
| 20260903023030 | 72 | 44 | 5.0 | 9.0 | 0.00 | 0.01 | 0.01 | 71 | 1010.3 |
| 20260903022511 | 72 | 46 | 5.0 | 9.0 | 0.00 | 0.01 | 0.01 | 71 | 1010.5 |
| 20260903022012 | 72 | 67 | 6.0 | 9.0 | 0.00 | 0.01 | 0.01 | 71 | 1010.4 |
| 20260903021602 | 73 | 34 | 4.0 | 9.0 | 0.00 | 0.01 | 0.01 | 71 | 1006.5 |
| 20260903021525 | 73 | 56 | 4.0 | 9.0 | 0.00 | 0.01 | 0.01 | 71 | 1010.3 |
| 20260903021010 | 73 | 55 | 5.0 | 8.0 | 0.00 | 0.01 | 0.01 | 71 | 1010.4 |
| 20260903020509 | 73 | 58 | 5.0 | 9.0 | 0.00 | 0.01 | 0.01 | 71 | 1010.4 |
| 20260903020055 | 73 | 70 | 5.0 | 0.0 | 0.00 | 0.00 | 0.01 | 71 | 1006.4 |
| 20260903020051 | 73 | 79 | 4.0 | 10.0 | 0.00 | 0.01 | 0.01 | 71 | 1010.4 |
| 20260903015506 | 73 | 44 | 5.0 | 10.0 | 0.00 | 0.01 | 0.01 | 71 | 1010.3 |
| 20260903015007 | 73 | 55 | 5.0 | 9.0 | 0.00 | 0.01 | 0.01 | 70 | 1010.3 |
| 20260903014603 | 74 | 49 | 4.0 | 9.0 | 0.00 | 0.01 | 0.01 | 71 | 1006.3 |
| 20260903014514 | 74 | 49 | 5.0 | 10.0 | 0.00 | 0.01 | 0.01 | 70 | 1010.2 |
| 20260903014007 | 74 | 50 | 5.0 | 10.0 | 0.00 | 0.01 | 0.01 | 70 | 1010.2 |
| 20260903013507 | 74 | 46 | 5.0 | 8.0 | 0.00 | 0.01 | 0.01 | 70 | 1010.1 |
| 20260903013054 | 74 | 61 | 4.0 | 8.0 | 0.00 | 0.01 | 0.01 | 69 | 1006.3 |
| 20260903013023 | 74 | 53 | 4.0 | 10.0 | 0.00 | 0.01 | 0.01 | 69 | 1010.1 |
| 20260903012509 | 75 | 61 | 4.0 | 10.0 | 0.00 | 0.01 | 0.01 | 69 | 1010.0 |
| 20260903012010 | 75 | 62 | 3.0 | 9.0 | 0.00 | 0.01 | 0.01 | 68 | 1010.1 |
| 20260903011550 | 75 | 58 | 3.0 | 8.0 | 0.00 | 0.01 | 0.01 | 68 | 1006.3 |
| 20260903011527 | 75 | 65 | 4.0 | 8.0 | 0.00 | 0.01 | 0.01 | 68 | 1010.2 |
| 20260903011010 | 75 | 44 | 5.0 | 8.0 | 0.00 | 0.01 | 0.01 | 67 | 1010.1 |
| 20260903010518 | 76 | 45 | 6.0 | 10.0 | 0.00 | 0.01 | 0.01 | 66 | 1010.2 |
| 20260903010051 | 76 | 52 | 4.0 | 10.0 | 0.00 | 0.01 | 0.01 | 66 | 1006.3 |
| 20260903010026 | 76 | 62 | 5.0 | 10.0 | 0.00 | 0.01 | 0.01 | 66 | 1010.2 |
| 20260903005515 | 76 | 66 | 6.0 | 10.0 | 0.00 | 0.01 | 0.01 | 65 | 1010.3 |
| 20260903005015 | 77 | 55 | 6.0 | 11.0 | 0.00 | 0.01 | 0.01 | 64 | 1010.2 |
| 20260903004552 | 77 | 57 | 5.0 | 11.0 | 0.00 | 0.01 | 0.01 | 64 | 1006.3 |
| 20260903004525 | 77 | 44 | 5.0 | 11.0 | 0.00 | 0.01 | 0.01 | 64 | 1010.3 |
| 20260903004006 | 77 | 50 | 5.0 | 11.0 | 0.00 | 0.01 | 0.01 | 64 | 1010.3 |
| 20260903003508 | 77 | 84 | 7.0 | 11.0 | 0.00 | 0.01 | 0.01 | 63 | 1010.3 |
| 20260903003048 | 78 | 59 | 6.0 | 11.0 | 0.00 | 0.01 | 0.01 | 63 | 1006.2 |
| 20260903003016 | 78 | 63 | 6.0 | 9.0 | 0.00 | 0.01 | 0.01 | 62 | 1010.2 |
| 20260903002512 | 78 | 84 | 6.0 | 9.0 | 0.00 | 0.01 | 0.01 | 61 | 1010.2 |
| 20260903002012 | 78 | 83 | 5.0 | 13.0 | 0.00 | 0.01 | 0.01 | 61 | 1010.3 |
| 20260903001550 | 79 | 72 | 4.0 | 13.0 | 0.00 | 0.01 | 0.01 | 61 | 1006.3 |
| 20260903001532 | 79 | 59 | 5.0 | 14.0 | 0.00 | 0.01 | 0.01 | 60 | 1010.2 |
| 20260903001010 | 79 | 53 | 6.0 | 14.0 | 0.00 | 0.01 | 0.01 | 60 | 1010.2 |
| 20260903000510 | 80 | 48 | 8.0 | 14.0 | 0.00 | 0.01 | 0.01 | 59 | 1010.3 |
| 20260903000046 | 80 | 59 | 7.0 | 15.0 | 0.00 | 0.01 | 0.01 | 59 | 1006.3 |
| 20260903000031 | 80 | 53 | 8.0 | 15.0 | 0.00 | 0.01 | 0.01 | 59 | 1010.3 |
| 20260902235512 | 80 | 48 | 7.0 | 15.0 | 0.00 | 0.01 | 0.01 | 59 | 1010.2 |
| 20260902235014 | 80 | 70 | 7.0 | 13.0 | 0.00 | 0.01 | 0.01 | 59 | 1010.3 |
| 20260902234558 | 80 | 56 | 6.0 | 11.0 | 0.00 | 0.01 | 0.01 | 60 | 1006.4 |
| 20260902234527 | 80 | 14 | 6.0 | 11.0 | 0.00 | 0.01 | 0.01 | 59 | 1010.3 |
| 20260902234018 | 81 | 85 | 7.0 | 14.0 | 0.00 | 0.01 | 0.01 | 59 | 1010.3 |
| 20260902233510 | 81 | 56 | 7.0 | 14.0 | 0.00 | 0.01 | 0.01 | 58 | 1010.3 |
| 20260902233045 | 81 | 56 | 6.0 | 13.0 | 0.00 | 0.01 | 0.01 | 58 | 1006.4 |
| 20260902233028 | 81 | 69 | 6.0 | 13.0 | 0.00 | 0.01 | 0.01 | 58 | 1010.3 |
| 20260902232509 | 81 | 15 | 8.0 | 14.0 | 0.00 | 0.01 | 0.01 | 57 | 1010.3 |
| 20260902232008 | 81 | 66 | 8.0 | 14.0 | 0.00 | 0.01 | 0.01 | 56 | 1010.3 |
| 20260902231550 | 82 | 53 | 6.0 | 13.0 | 0.00 | 0.01 | 0.01 | 57 | 1006.3 |
| 20260902231518 | 82 | 45 | 7.0 | 13.0 | 0.00 | 0.01 | 0.01 | 56 | 1010.3 |
| 20260902231009 | 82 | 67 | 7.0 | 15.0 | 0.00 | 0.01 | 0.01 | 56 | 1010.3 |
| 20260902230512 | 82 | 63 | 10.0 | 15.0 | 0.00 | 0.01 | 0.01 | 55 | 1010.3 |
| 20260902230042 | 82 | 41 | 6.0 | 14.0 | 0.00 | 0.01 | 0.01 | 55 | 1006.4 |
| 20260902230028 | 82 | 51 | 6.0 | 14.0 | 0.00 | 0.01 | 0.01 | 54 | 1010.3 |
| 20260902225516 | 83 | 56 | 5.0 | 13.0 | 0.00 | 0.01 | 0.01 | 53 | 1010.2 |
| 20260902225011 | 83 | 74 | 6.0 | 14.0 | 0.00 | 0.01 | 0.01 | 53 | 1010.3 |
| 20260902224545 | 83 | 68 | 6.0 | 14.0 | 0.00 | 0.01 | 0.01 | 53 | 1006.4 |
| 20260902224525 | 82 | 67 | 7.0 | 14.0 | 0.00 | 0.01 | 0.01 | 52 | 1010.3 |
| 20260902224017 | 83 | 46 | 8.0 | 15.0 | 0.00 | 0.01 | 0.01 | 51 | 1010.4 |
| 20260902223512 | 82 | 93 | 6.0 | 15.0 | 0.00 | 0.01 | 0.01 | 53 | 1010.4 |
| 20260902223040 | 83 | 63 | 8.0 | 15.0 | 0.00 | 0.01 | 0.01 | 53 | 1006.5 |
| 20260902223028 | 83 | 47 | 8.0 | 14.0 | 0.00 | 0.01 | 0.01 | 52 | 1010.3 |
| 20260902222513 | 83 | 56 | 8.0 | 14.0 | 0.00 | 0.01 | 0.01 | 51 | 1010.4 |
| 20260902222011 | 83 | 71 | 5.0 | 17.0 | 0.00 | 0.01 | 0.01 | 52 | 1010.4 |
| 20260902221540 | 83 | 63 | 7.0 | 17.0 | 0.00 | 0.01 | 0.01 | 53 | 1006.6 |
| 20260902221531 | 83 | 37 | 7.0 | 17.0 | 0.00 | 0.01 | 0.01 | 51 | 1010.5 |
| 20260902221012 | 83 | 82 | 6.0 | 16.0 | 0.00 | 0.01 | 0.01 | 51 | 1010.5 |
| 20260902220508 | 83 | 56 | 9.0 | 15.0 | 0.00 | 0.01 | 0.01 | 51 | 1010.6 |
| 20260902220039 | 83 | 96 | 6.0 | 15.0 | 0.00 | 0.01 | 0.01 | 51 | 1006.6 |
| 20260902220021 | 83 | 126 | 6.0 | 15.0 | 0.00 | 0.01 | 0.01 | 50 | 1010.6 |
| 20260902215514 | 83 | 115 | 7.0 | 17.0 | 0.00 | 0.01 | 0.01 | 50 | 1010.7 |
| 20260902215011 | 83 | 112 | 6.0 | 17.0 | 0.00 | 0.01 | 0.01 | 51 | 1010.7 |
| 20260902214540 | 83 | 65 | 7.0 | 17.0 | 0.00 | 0.01 | 0.01 | 50 | 1006.7 |
| 20260902214527 | 83 | 101 | 7.0 | 17.0 | 0.00 | 0.01 | 0.01 | 50 | 1010.7 |
| 20260902214012 | 83 | 69 | 5.0 | 17.0 | 0.00 | 0.01 | 0.01 | 51 | 1010.7 |
| 20260902213512 | 83 | 78 | 10.0 | 17.0 | 0.00 | 0.01 | 0.01 | 50 | 1010.9 |
| 20260902213035 | 84 | 33 | 7.0 | 14.0 | 0.00 | 0.01 | 0.01 | 50 | 1006.9 |
| 20260902213027 | 84 | 55 | 6.0 | 13.0 | 0.00 | 0.01 | 0.01 | 50 | 1010.8 |
| 20260902212504 | 83 | 109 | 7.0 | 13.0 | 0.00 | 0.01 | 0.01 | 50 | 1010.9 |
| 20260902212005 | 83 | 75 | 7.0 | 15.0 | 0.00 | 0.01 | 0.01 | 51 | 1011.0 |
| 20260902211538 | 83 | 70 | 7.0 | 15.0 | 0.00 | 0.01 | 0.01 | 51 | 1007.2 |
| 20260902211517 | 83 | 50 | 8.0 | 15.0 | 0.00 | 0.01 | 0.01 | 50 | 1011.1 |
| 20260902211009 | 83 | 101 | 7.0 | 15.0 | 0.00 | 0.01 | 0.01 | 51 | 1011.1 |
| 20260902210513 | 83 | 58 | 6.0 | 14.0 | 0.00 | 0.01 | 0.01 | 50 | 1011.1 |
| 20260902210032 | 83 | 58 | 5.0 | 14.0 | 0.00 | 0.01 | 0.01 | 51 | 1007.2 |
| 20260902210017 | 83 | 71 | 6.0 | 14.0 | 0.00 | 0.01 | 0.01 | 51 | 1011.1 |
| 20260902205510 | 83 | 58 | 6.0 | 13.0 | 0.00 | 0.01 | 0.01 | 51 | 1011.2 |
| 20260902205010 | 83 | 91 | 8.0 | 14.0 | 0.00 | 0.01 | 0.01 | 50 | 1011.3 |
| 20260902204530 | 83 | 89 | 7.0 | 14.0 | 0.00 | 0.01 | 0.01 | 50 | 1007.4 |
| 20260902204524 | 83 | 68 | 8.0 | 14.0 | 0.00 | 0.01 | 0.01 | 50 | 1011.3 |
| 20260902204013 | 83 | 67 | 9.0 | 17.0 | 0.00 | 0.01 | 0.01 | 49 | 1011.4 |
| 20260902203513 | 83 | 72 | 9.0 | 17.0 | 0.00 | 0.01 | 0.01 | 49 | 1011.5 |
| 20260902203028 | 83 | 49 | 4.0 | 16.0 | 0.00 | 0.01 | 0.01 | 52 | 1007.6 |
| 20260902202516 | 83 | 130 | 5.0 | 13.0 | 0.00 | 0.01 | 0.01 | 51 | 1011.6 |
| 20260902202013 | 83 | 68 | 5.0 | 16.0 | 0.00 | 0.01 | 0.01 | 51 | 1011.6 |
| 20260902201537 | 83 | 139 | 7.0 | 16.0 | 0.00 | 0.01 | 0.01 | 51 | 1011.7 |
| 20260902201534 | 83 | 76 | 5.0 | 16.0 | 0.00 | 0.01 | 0.01 | 51 | 1007.7 |
| 20260902201007 | 82 | 105 | 5.0 | 14.0 | 0.00 | 0.01 | 0.01 | 51 | 1011.7 |
| 20260902200508 | 82 | 66 | 8.0 | 14.0 | 0.00 | 0.01 | 0.01 | 50 | 1011.7 |
| 20260902200023 | 83 | 75 | 6.0 | 15.0 | 0.00 | 0.01 | 0.01 | 54 | 1008.0 |
| 20260902200014 | 82 | 54 | 6.0 | 15.0 | 0.00 | 0.01 | 0.01 | 53 | 1011.8 |
| 20260902195509 | 82 | 80 | 8.0 | 15.0 | 0.00 | 0.01 | 0.01 | 51 | 1011.9 |
| 20260902195006 | 82 | 70 | 6.0 | 15.0 | 0.00 | 0.01 | 0.01 | 52 | 1011.9 |
| 20260902194527 | 82 | 60 | 8.0 | 15.0 | 0.00 | 0.01 | 0.01 | 52 | 1011.9 |
| 20260902194523 | 82 | 120 | 8.0 | 15.0 | 0.00 | 0.01 | 0.01 | 53 | 1008.0 |
| 20260902194012 | 82 | 68 | 6.0 | 14.0 | 0.00 | 0.01 | 0.01 | 51 | 1011.8 |
| 20260902193513 | 82 | 94 | 8.0 | 15.0 | 0.00 | 0.01 | 0.01 | 52 | 1011.8 |
| 20260902193024 | 82 | 70 | 7.0 | 15.0 | 0.00 | 0.01 | 0.01 | 51 | 1011.9 |
| 20260902193020 | 82 | 60 | 7.0 | 15.0 | 0.00 | 0.01 | 0.01 | 52 | 1008.2 |
| 20260902192513 | 83 | 108 | 8.0 | 15.0 | 0.00 | 0.01 | 0.01 | 51 | 1011.9 |
| 20260902192013 | 82 | 108 | 6.0 | 12.0 | 0.00 | 0.01 | 0.01 | 50 | 1012.0 |
| 20260902191538 | 82 | 86 | 5.0 | 15.0 | 0.00 | 0.01 | 0.01 | 51 | 1012.0 |
| 20260902191519 | 82 | 128 | 4.0 | 15.0 | 0.00 | 0.01 | 0.01 | 51 | 1008.3 |
| 20260902191016 | 81 | 120 | 6.0 | 15.0 | 0.00 | 0.01 | 0.01 | 52 | 1012.1 |
| 20260902190514 | 82 | 60 | 6.0 | 13.0 | 0.00 | 0.01 | 0.01 | 50 | 1012.1 |
| 20260902190018 | 82 | 85 | 6.0 | 13.0 | 0.00 | 0.01 | 0.01 | 52 | 1008.3 |
| 20260902190008 | 82 | 58 | 7.0 | 13.0 | 0.00 | 0.01 | 0.01 | 52 | 1012.1 |
| 20260902185507 | 82 | 86 | 5.0 | 13.0 | 0.00 | 0.01 | 0.01 | 51 | 1012.1 |
| 20260902185006 | 82 | 105 | 4.0 | 14.0 | 0.00 | 0.01 | 0.01 | 52 | 1012.2 |
| 20260902184520 | 82 | 8 | 8.0 | 14.0 | 0.00 | 0.01 | 0.01 | 51 | 1012.3 |
| 20260902184514 | 82 | 57 | 7.0 | 14.0 | 0.00 | 0.01 | 0.01 | 52 | 1008.5 |
| 20260902184011 | 82 | 75 | 10.0 | 14.0 | 0.00 | 0.01 | 0.01 | 52 | 1012.4 |
| 20260902183508 | 82 | 79 | 6.0 | 11.0 | 0.00 | 0.01 | 0.01 | 52 | 1012.4 |
| 20260902183020 | 82 | 77 | 6.0 | 11.0 | 0.00 | 0.01 | 0.01 | 50 | 1012.4 |
| 20260902183013 | 82 | 81 | 5.0 | 11.0 | 0.00 | 0.01 | 0.01 | 51 | 1008.7 |
| 20260902182514 | 82 | 61 | 5.0 | 10.0 | 0.00 | 0.01 | 0.01 | 53 | 1012.5 |
| 20260902182016 | 82 | 132 | 4.0 | 11.0 | 0.00 | 0.01 | 0.01 | 54 | 1012.5 |
| 20260902181527 | 81 | 51 | 6.0 | 12.0 | 0.00 | 0.01 | 0.01 | 54 | 1012.5 |
| 20260902181510 | 81 | 49 | 6.0 | 12.0 | 0.00 | 0.01 | 0.01 | 55 | 1008.8 |
| 20260902181011 | 81 | 51 | 5.0 | 12.0 | 0.00 | 0.01 | 0.01 | 53 | 1012.5 |
| 20260902180515 | 81 | 40 | 5.0 | 14.0 | 0.00 | 0.01 | 0.01 | 53 | 1012.7 |
| 20260902180032 | 81 | 98 | 6.0 | 14.0 | 0.00 | 0.01 | 0.01 | 53 | 1012.7 |
| 20260902180008 | 81 | 117 | 5.0 | 14.0 | 0.00 | 0.01 | 0.01 | 53 | 1008.9 |
| 20260902175516 | 81 | 63 | 6.0 | 10.0 | 0.00 | 0.01 | 0.01 | 52 | 1012.7 |
| 20260902175014 | 81 | 101 | 4.0 | 9.0 | 0.00 | 0.01 | 0.01 | 55 | 1012.7 |
| 20260902174512 | 80 | 60 | 3.0 | 11.0 | 0.00 | 0.01 | 0.01 | 55 | 1012.8 |
| 20260902174505 | 80 | 86 | 3.0 | 10.0 | 0.00 | 0.01 | 0.01 | 56 | 1008.9 |
| 20260902174008 | 80 | 41 | 6.0 | 11.0 | 0.00 | 0.01 | 0.01 | 55 | 1012.8 |
| 20260902173507 | 80 | 77 | 4.0 | 11.0 | 0.00 | 0.01 | 0.01 | 55 | 1012.8 |
| 20260902173017 | 80 | 131 | 5.0 | 10.0 | 0.00 | 0.01 | 0.01 | 56 | 1012.8 |
| 20260902173008 | 80 | 131 | 5.0 | 10.0 | 0.00 | 0.01 | 0.01 | 56 | 1009.1 |
| 20260902172508 | 79 | 86 | 5.0 | 10.0 | 0.00 | 0.01 | 0.01 | 54 | 1012.8 |
| 20260902172014 | 79 | 49 | 4.0 | 10.0 | 0.00 | 0.01 | 0.01 | 55 | 1012.9 |
| 20260902171525 | 79 | 51 | 5.0 | 10.0 | 0.00 | 0.01 | 0.01 | 56 | 1012.9 |
| 20260902171501 | 79 | 51 | 4.0 | 10.0 | 0.00 | 0.01 | 0.01 | 57 | 1009.2 |
| 20260902171017 | 79 | 52 | 7.0 | 10.0 | 0.00 | 0.01 | 0.01 | 56 | 1012.9 |
| 20260902170511 | 78 | 61 | 3.0 | 8.0 | 0.00 | 0.01 | 0.01 | 58 | 1012.9 |
| 20260902170059 | 78 | 63 | 3.0 | 8.0 | 0.00 | 0.01 | 0.01 | 58 | 1009.4 |
| 20260902170030 | 78 | 72 | 4.0 | 8.0 | 0.00 | 0.01 | 0.01 | 57 | 1012.9 |
| 20260902165515 | 78 | 90 | 3.0 | 11.0 | 0.00 | 0.01 | 0.01 | 58 | 1012.9 |
| 20260902165015 | 78 | 124 | 5.0 | 11.0 | 0.00 | 0.01 | 0.01 | 57 | 1012.8 |
| 20260902164559 | 78 | 66 | 6.0 | 10.0 | 0.00 | 0.01 | 0.01 | 57 | 1009.3 |
| 20260902164536 | 78 | 64 | 5.0 | 12.0 | 0.00 | 0.01 | 0.01 | 58 | 1012.8 |
| 20260902164014 | 78 | 108 | 4.0 | 12.0 | 0.00 | 0.01 | 0.01 | 57 | 1012.8 |
| 20260902163516 | 78 | 82 | 6.0 | 13.0 | 0.00 | 0.01 | 0.01 | 57 | 1012.8 |